TimeCDT,TemperatureF,Dew PointF,Humidity,Sea Level PressureIn,VisibilityMPH,Wind Direction,Wind SpeedMPH,Gust SpeedMPH,PrecipitationIn,Events,Conditions,WindDirDegrees,DateUTC
12:15 AM,35.6,33.8,93,30.14,7.0,NE,13.8,20.7,N/A,,Overcast,40,2013-04-03 05:15:00
12:35 AM,35.6,33.8,93,30.15,7.0,NE,10.4,16.1,N/A,,Overcast,40,2013-04-03 05:35:00
12:55 AM,35.6,33.8,93,30.16,5.0,NNE,12.7,18.4,N/A,,Overcast,30,2013-04-03 05:55:00
1:15 AM,35.6,33.8,93,30.16,3.0,NNE,13.8,-,N/A,,Overcast,20,2013-04-03 06:15:00
1:35 AM,35.6,33.8,93,30.16,4.0,North,12.7,-,N/A,,Light Drizzle,10,2013-04-03 06:35:00
1:55 AM,35.6,33.8,93,30.16,3.0,NNE,11.5,-,N/A,Rain,Light Rain,20,2013-04-03 06:55:00
2:15 AM,35.6,33.8,93,30.16,4.0,North,11.5,-,N/A,,Overcast,10,2013-04-03 07:15:00
2:35 AM,35.6,32.0,87,30.16,4.0,North,11.5,17.3,N/A,,Light Drizzle,10,2013-04-03 07:35:00
2:55 AM,35.6,32.0,87,30.16,4.0,NNE,13.8,-,N/A,,Light Drizzle,20,2013-04-03 07:55:00
3:15 AM,35.6,32.0,87,30.15,3.0,NNE,15.0,-,N/A,,Light Drizzle,20,2013-04-03 08:15:00
3:35 AM,35.6,32.0,87,30.15,3.0,NNE,15.0,-,N/A,,Light Drizzle,20,2013-04-03 08:35:00
3:55 AM,35.6,33.8,93,30.14,3.0,NNE,13.8,-,N/A,Rain,Light Rain,30,2013-04-03 08:55:00
4:15 AM,33.8,32.0,93,30.13,3.0,NNE,13.8,20.7,N/A,Rain,Light Rain,30,2013-04-03 09:15:00
4:35 AM,35.6,32.0,87,30.14,4.0,NNE,10.4,-,N/A,,Overcast,30,2013-04-03 09:35:00
4:55 AM,35.6,32.0,87,30.14,5.0,NNE,12.7,-,N/A,,Overcast,30,2013-04-03 09:55:00
5:15 AM,33.8,32.0,93,30.13,5.0,NNE,15.0,-,0.01,Rain,Light Rain,30,2013-04-03 10:15:00
5:35 AM,33.8,32.0,93,30.13,5.0,NNE,15.0,-,0.01,Rain,Light Rain,30,2013-04-03 10:35:00
5:55 AM,35.6,32.0,87,30.14,5.0,NNE,12.7,-,0.01,,Overcast,30,2013-04-03 10:55:00
6:15 AM,35.6,32.0,87,30.14,7.0,NE,12.7,-,N/A,,Overcast,40,2013-04-03 11:15:00
6:35 AM,35.6,32.0,87,30.14,5.0,NE,10.4,17.3,N/A,Rain,Light Rain,40,2013-04-03 11:35:00
6:55 AM,35.6,32.0,87,30.14,5.0,NE,10.4,-,0.03,Rain,Light Rain,40,2013-04-03 11:55:00
7:15 AM,35.6,32.0,87,30.14,7.0,NE,13.8,-,N/A,,Light Drizzle,40,2013-04-03 12:15:00
7:35 AM,35.6,32.0,87,30.14,7.0,NE,11.5,-,N/A,Rain,Light Rain,40,2013-04-03 12:35:00
7:55 AM,35.6,32.0,87,30.16,10.0,NNE,11.5,-,0.02,,Light Drizzle,30,2013-04-03 12:55:00
8:15 AM,35.6,32.0,87,30.17,10.0,NNE,12.7,18.4,N/A,,Overcast,30,2013-04-03 13:15:00
8:35 AM,35.6,32.0,87,30.17,2.5,NNE,11.5,-,0.01,Rain,Light Rain,30,2013-04-03 13:35:00
8:55 AM,35.6,33.8,93,30.17,1.8,NNE,15.0,-,0.01,,Drizzle,20,2013-04-03 13:55:00
9:15 AM,35.6,33.8,93,30.18,2.5,NNE,12.7,-,N/A,,Light Drizzle,20,2013-04-03 14:15:00
9:35 AM,35.6,33.8,93,30.19,2.5,NNE,12.7,-,0.01,,Overcast,20,2013-04-03 14:35:00
9:55 AM,35.6,33.8,93,30.19,3.0,NNE,13.8,-,0.01,,Light Drizzle,30,2013-04-03 14:55:00
10:15 AM,35.6,33.8,93,30.19,2.5,NNE,11.5,-,0.02,Rain,Rain,30,2013-04-03 15:15:00
10:35 AM,35.6,33.8,93,30.20,2.0,NE,13.8,-,0.06,Rain,Light Rain,50,2013-04-03 15:35:00
10:55 AM,35.6,33.8,93,30.20,4.0,NE,10.4,-,0.08,Rain,Rain,40,2013-04-03 15:55:00
11:15 AM,35.6,33.8,93,30.21,4.0,NE,10.4,-,0.01,Rain,Light Rain,40,2013-04-03 16:15:00
11:35 AM,35.6,33.8,93,30.22,1.2,NNE,11.5,-,0.08,Rain,Heavy Rain,30,2013-04-03 16:35:00
11:55 AM,35.6,33.8,93,30.21,2.0,NE,12.7,-,0.16,Rain,Rain,40,2013-04-03 16:55:00
12:15 PM,35.6,33.8,93,30.21,5.0,NNE,11.5,-,0.01,Rain,Light Rain,30,2013-04-03 17:15:00
12:35 PM,35.6,33.8,93,30.21,7.0,NE,11.5,-,0.02,Rain,Rain,40,2013-04-03 17:35:00
1:15 PM,35.6,33.8,93,30.20,4.0,NNE,15.0,-,0.01,Rain,Rain,30,2013-04-03 18:15:00
1:35 PM,35.6,33.8,93,30.20,7.0,NE,15.0,-,0.02,,Drizzle,40,2013-04-03 18:35:00
1:55 PM,35.6,33.8,93,30.19,5.0,NE,12.7,-,0.05,Rain,Light Rain,40,2013-04-03 18:55:00
2:15 PM,35.6,33.8,93,30.20,10.0,NE,10.4,-,0.01,Rain,Light Rain,40,2013-04-03 19:15:00
2:35 PM,35.6,33.8,93,30.19,10.0,NE,13.8,19.6,0.01,Rain,Light Rain,40,2013-04-03 19:35:00
3:15 PM,35.6,33.8,93,30.18,10.0,NE,13.8,18.4,N/A,Rain,Light Rain,40,2013-04-03 20:15:00
3:35 PM,35.6,32.0,87,30.19,10.0,NE,13.8,18.4,0.01,,Light Drizzle,40,2013-04-03 20:35:00
3:55 PM,35.6,32.0,87,30.19,10.0,ENE,13.8,18.4,0.01,Rain,Light Rain,60,2013-04-03 20:55:00
4:15 PM,35.6,32.0,87,30.19,5.0,NE,10.4,-,0.03,Rain,Light Rain,50,2013-04-03 21:15:00
4:35 PM,35.6,32.0,87,30.19,5.0,ENE,11.5,-,0.06,Rain,Light Rain,70,2013-04-03 21:35:00
4:55 PM,35.6,32.0,87,30.17,5.0,ENE,11.5,-,0.07,Rain,Light Rain,60,2013-04-03 21:55:00
5:15 PM,35.6,32.0,87,30.17,3.0,NE,9.2,-,0.03,Rain,Light Rain,40,2013-04-03 22:15:00
5:35 PM,35.6,32.0,87,30.18,5.0,NE,11.5,-,0.05,Rain,Light Rain,40,2013-04-03 22:35:00
5:55 PM,35.6,32.0,87,30.17,4.0,NNE,17.3,-,0.08,Rain,Rain,30,2013-04-03 22:55:00
6:15 PM,35.6,32.0,87,30.17,4.0,NE,12.7,-,0.02,Rain,Rain,50,2013-04-03 23:15:00
6:35 PM,35.6,32.0,87,30.17,1.8,NE,9.2,-,0.10,,Overcast,40,2013-04-03 23:35:00
6:55 PM,35.6,32.0,87,30.18,7.0,NE,9.2,-,0.11,Rain,Light Rain,40,2013-04-03 23:55:00
7:15 PM,35.6,32.0,87,30.19,10.0,NE,9.2,-,N/A,,Drizzle,50,2013-04-04 00:15:00
7:35 PM,35.6,32.0,87,30.19,10.0,NE,8.1,-,N/A,Rain,Light Rain,50,2013-04-04 00:35:00
7:55 PM,35.6,32.0,87,30.19,10.0,NNE,9.2,-,N/A,,Light Drizzle,30,2013-04-04 00:55:00
8:15 PM,35.6,32.0,87,30.19,10.0,NNE,10.4,-,N/A,,Overcast,20,2013-04-04 01:15:00
8:35 PM,35.6,32.0,87,30.19,10.0,North,8.1,-,N/A,,Overcast,10,2013-04-04 01:35:00
8:55 PM,35.6,32.0,87,30.20,10.0,NNE,10.4,-,N/A,,Overcast,20,2013-04-04 01:55:00
9:15 PM,35.6,32.0,87,30.20,10.0,North,10.4,-,N/A,,Overcast,360,2013-04-04 02:15:00
9:35 PM,35.6,32.0,87,30.20,10.0,NNE,6.9,-,N/A,,Overcast,20,2013-04-04 02:35:00
9:55 PM,35.6,32.0,87,30.21,7.0,NNE,8.1,-,N/A,,Overcast,30,2013-04-04 02:55:00
10:15 PM,33.8,32.0,93,30.22,5.0,NNE,11.5,-,N/A,,Overcast,20,2013-04-04 03:15:00
10:35 PM,33.8,32.0,93,30.22,7.0,North,9.2,-,N/A,,Overcast,10,2013-04-04 03:35:00
10:55 PM,33.8,32.0,93,30.24,7.0,North,8.1,-,N/A,,Overcast,10,2013-04-04 03:55:00
11:15 PM,33.8,32.0,93,30.23,5.0,North,9.2,-,N/A,,Overcast,10,2013-04-04 04:15:00
11:35 PM,33.8,32.0,93,30.23,7.0,North,6.9,-,N/A,,Overcast,360,2013-04-04 04:35:00